Ephrata, WA

9:27 AM PST on February 27, 2017 (GMT -0800)
Ephrata Municipal

Weather History for KEPH - May, 2012

Change the Weather History Date:

Thursday, May 3, 2012

  Actual Average Record
Temperature  
Mean Temperature 48 °F 55 °F  
Max Temperature 55 °F 68 °F 88 °F (1966)
Min Temperature 41 °F 42 °F 32 °F (2001)
Degree Days  
Heating Degree Days 17 10  
Month to date heating degree days 47 32  
Since 1 July heating degree days 5513 5729  
Cooling Degree Days 0 0  
Month to date cooling degree days 0 0  
Year to date cooling degree days 5 2  
Moisture  
Dew Point 39 °F    
Average Humidity 71    
Maximum Humidity 92    
Minimum Humidity 50    
Precipitation  
Precipitation 0.03 in 0.01 in 0.24 in (1975)
Month to date precipitation 0.03 0.04  
Year to date precipitation 2.49 2.85  
Sea Level Pressure  
Sea Level Pressure 29.71 in    
Wind  
Wind Speed 6 mph (West)    
Max Wind Speed 13 mph    
Max Gust Speed 16 mph    
Visibility 10 miles    
Events Rain    
T = Trace of Precipitation, MM = Missing Value Source: NWS Daily Summary

Daily Weather History Graph

Daily Weather History Graph

Search for Another Location

Airport or City:

Trip Planner

Search our weather history database for the weather conditions in past years. The results will help you decide how hot, cold, wet, or windy it might be!

Date:

Astronomy

May. 03, 2012 Rise Set
Actual Time 5:37 AM PDT 8:12 PM PDT
Civil Twilight 5:03 AM PDT 8:47 PM PDT
Nautical Twilight 4:19 AM PDT 9:31 PM PDT
Astronomical Twilight 3:29 AM PDT 10:22 PM PDT
Moon 5:35 PM PDT (5/3) 3:55 AM PDT (5/3)
Length of Visible Light 15h 44m
Length of Day
14h 35m
Waxing Gibbous, 92% of the Moon is Illuminated
May 3
Waxing Gibbous
May 5
Full
May 12
Last Quarter
May 20
New
May 28
First Quarter

Hourly Weather History & Observations

Time (PDT) Temp. Windchill Dew Point Humidity Pressure Visibility Wind Dir Wind Speed Gust Speed Precip Events Conditions
12:53 AM 46.0 °F 43.1 °F 30.9 °F 56% 29.79 in 10.0 mi NNW 5.8 mph - N/A   Overcast
1:53 AM 46.9 °F - 30.9 °F 54% 29.76 in 10.0 mi North 5.8 mph - N/A   Mostly Cloudy
2:53 AM 48.0 °F - 30.9 °F 52% 29.73 in 10.0 mi NNE 8.1 mph - N/A   Overcast
3:53 AM 46.9 °F - 32.0 °F 56% 29.73 in 10.0 mi North 9.2 mph - N/A   Overcast
4:53 AM 48.0 °F - 34.0 °F 58% 29.70 in 10.0 mi North 9.2 mph - N/A   Overcast
5:53 AM 48.0 °F - 34.0 °F 58% 29.69 in 10.0 mi NNE 9.2 mph - N/A   Overcast
6:53 AM 46.9 °F - 37.0 °F 68% 29.70 in 10.0 mi North 4.6 mph - 0.00 in Rain Light Rain
7:53 AM 46.9 °F - 39.0 °F 74% 29.68 in 10.0 mi NNE 8.1 mph - 0.00 in Rain Light Rain
8:53 AM 46.9 °F - 39.0 °F 74% 29.68 in 10.0 mi ENE 8.1 mph - 0.00 in   Overcast
9:53 AM 48.9 °F - 41.0 °F 74% 29.68 in 10.0 mi NE 5.8 mph - 0.00 in   Overcast
10:53 AM 50.0 °F - 41.0 °F 71% 29.68 in 10.0 mi ENE 4.6 mph - 0.00 in Rain Light Rain
11:53 AM 53.1 °F - 37.9 °F 57% 29.67 in 10.0 mi South 4.6 mph - 0.00 in   Mostly Cloudy
12:53 PM 52.0 °F - 41.0 °F 66% 29.67 in 10.0 mi SW 6.9 mph - 0.00 in Rain Light Rain
1:53 PM 52.0 °F - 39.0 °F 61% 29.67 in 10.0 mi SSW 6.9 mph - 0.01 in Rain Light Rain
2:53 PM 50.0 °F - 43.0 °F 77% 29.68 in 6.0 mi SSE 4.6 mph - 0.01 in Rain Light Rain
3:53 PM 51.1 °F - 44.1 °F 77% 29.67 in 10.0 mi Variable 3.5 mph - 0.01 in   Overcast
4:53 PM 54.0 °F - 44.1 °F 69% 29.68 in 10.0 mi SSE 4.6 mph - N/A   Mostly Cloudy
5:53 PM 54.0 °F - 43.0 °F 66% 29.68 in 10.0 mi South 4.6 mph - 0.00 in   Overcast
6:53 PM 55.0 °F - 43.0 °F 64% 29.70 in 10.0 mi SSW 6.9 mph - N/A   Overcast
7:53 PM 54.0 °F - 44.1 °F 69% 29.71 in 10.0 mi SW 4.6 mph - N/A   Overcast
8:53 PM 51.1 °F - 44.1 °F 77% 29.74 in 10.0 mi WSW 3.5 mph - N/A   Mostly Cloudy
9:53 PM 48.9 °F - 45.0 °F 86% 29.76 in 10.0 mi SSW 8.1 mph - N/A   Mostly Cloudy
10:53 PM 44.1 °F 41.5 °F 42.1 °F 93% 29.79 in 10.0 mi WSW 4.6 mph - N/A   Scattered Clouds
11:53 PM 44.1 °F 39.0 °F 42.1 °F 93% 29.82 in 10.0 mi SW 9.2 mph - N/A   Clear